DW2363 Weather Reports


time (UTC)temp
C
wind
direction
speed
KPH
gust
KPH
rain 1hr
cm
rain 24hr
cm
rain mn
cm
humidity
%
barometer
mb
20260505090140 9 261 16.1 22.5 0.00 0.00 0.00 87 1013.0
20260505085640 9 265 16.1 22.5 0.00 0.00 0.00 88 1013.0
20260505085140 9 263 12.9 19.3 0.00 0.00 0.00 90 1013.0
20260505084640 9 269 11.3 17.7 0.00 0.00 0.00 91 1013.1
20260505084140 9 290 9.7 14.5 0.00 0.00 0.00 91 1013.2
20260505083640 9 295 12.9 17.7 0.00 0.00 0.00 90 1013.4
20260505083138 9 307 14.5 17.7 0.00 0.00 0.00 90 1013.4
20260505082642 9 302 9.7 16.1 0.00 0.00 0.00 90 1013.4
20260505082638 9 302 12.9 17.7 0.00 0.00 0.00 89 1013.2
20260505081638 9 294 9.7 14.5 0.00 0.00 0.00 91 1013.4
20260505081137 9 304 9.7 14.5 0.00 0.00 0.00 91 1013.4
20260505080637 9 289 11.3 19.3 0.00 0.00 0.00 91 1013.5
20260505080138 9 283 12.9 19.3 0.00 0.00 0.00 92 1013.5
20260505075642 9 277 11.3 16.1 0.00 0.00 0.00 91 1013.6
20260505075638 9 295 12.9 17.7 0.00 0.00 0.00 91 1013.5
20260505074641 9 240 11.3 17.7 0.00 0.00 0.00 90 1013.6
20260505074637 9 229 11.3 17.7 0.00 0.00 0.00 90 1013.6
20260505073637 9 246 11.3 17.7 0.00 0.00 0.00 91 1013.7
20260505073138 9 257 12.9 17.7 0.00 0.00 0.00 92 1013.7
20260505072638 9 244 12.9 17.7 0.00 0.00 0.00 92 1013.7
20260505072136 9 259 12.9 20.9 0.00 0.00 0.00 93 1013.7
20260505071636 9 350 12.9 20.9 0.00 0.00 0.00 93 1013.7
20260505071135 9 300 12.9 22.5 0.00 0.00 0.00 94 1013.7
20260505070635 9 251 14.5 22.5 0.00 0.00 0.00 94 1013.7
20260505070140 9 246 17.7 24.1 0.00 0.00 0.00 94 1013.6
20260505070136 9 252 16.1 24.1 0.00 0.00 0.00 94 1013.6
20260505065135 9 254 17.7 24.1 0.00 0.00 0.00 94 1013.5
20260505064745 9 263 14.5 19.3 0.00 0.00 0.00 94 1013.7
20260505064635 9 252 17.7 24.1 0.00 0.00 0.00 94 1013.6
20260505064140 9 263 16.1 20.9 0.00 0.00 0.00 94 1013.7
20260505064135 9 243 16.1 24.1 0.00 0.00 0.00 94 1013.6
20260505062635 9 328 12.9 19.3 0.00 0.00 0.00 93 1013.7
20260505062136 9 292 8.0 17.7 0.00 0.00 0.00 93 1013.8
20260505061636 10 276 6.4 11.3 0.00 0.00 0.00 93 1013.8
20260505061135 10 279 6.4 12.9 0.00 0.00 0.00 92 1013.8
20260505060633 10 273 4.8 12.9 0.00 0.00 0.00 92 1013.8
20260505060133 10 266 4.8 9.7 0.00 0.00 0.00 91 1013.8
20260505055633 10 319 3.2 9.7 0.00 0.00 0.00 91 1013.8
20260505055133 10 286 3.2 9.7 0.00 0.00 0.00 90 1013.8
20260505054633 10 288 1.6 6.4 0.00 0.00 0.00 90 1013.8
20260505054131 10 255 3.2 9.7 0.00 0.00 0.00 89 1013.7
20260505053633 10 230 4.8 9.7 0.00 0.00 0.00 88 1013.7
20260505053131 10 266 3.2 9.7 0.00 0.00 0.00 88 1013.8
20260505052631 10 274 3.2 9.7 0.00 0.00 0.00 90 1013.9
20260505052131 10 286 3.2 6.4 0.00 0.00 0.00 90 1013.9
20260505051632 10 275 1.6 6.4 0.00 0.00 0.00 89 1013.9
20260505051131 10 275 1.6 6.4 0.00 0.00 0.00 89 1013.9
20260505050631 10 275 1.6 11.3 0.00 0.00 0.00 90 1013.9
20260505050130 10 275 1.6 11.3 0.00 0.00 0.00 91 1013.8
20260505041629 10 273 8.0 14.5 0.00 0.00 0.00 92 1014.0
20260505041127 10 257 4.8 11.3 0.00 0.00 0.00 92 1014.0
20260505040627 10 261 4.8 9.7 0.00 0.00 0.00 92 1014.0
20260505040132 10 312 4.8 8.0 0.00 0.00 0.00 93 1014.1
20260505040127 10 279 4.8 9.7 0.00 0.00 0.00 92 1014.0
20260505035734 10 300 4.8 8.0 0.00 0.00 0.00 93 1014.0
20260505034627 10 297 3.2 8.0 0.00 0.00 0.00 94 1014.0
20260505034127 10 238 4.8 8.0 0.00 0.00 0.00 94 1013.9
20260505033627 10 238 4.8 9.7 0.00 0.00 0.00 94 1013.9
20260505033127 10 257 4.8 9.7 0.00 0.00 0.00 95 1013.9
20260505032627 10 247 3.2 6.4 0.00 0.00 0.00 95 1013.9
20260505032125 10 186 3.2 6.4 0.00 0.00 0.00 95 1013.8
20260505031625 10 186 3.2 12.9 0.00 0.00 0.00 95 1013.7
20260505031126 10 186 4.8 12.9 0.00 0.00 0.00 94 1013.7
20260505030625 10 178 8.0 12.9 0.00 0.00 0.00 94 1013.5
20260505030125 10 167 9.7 14.5 0.00 0.00 0.00 94 1013.4
20260505025631 10 188 9.7 14.5 0.00 0.00 0.00 93 1013.4
20260505025625 10 195 9.7 14.5 0.00 0.00 0.00 93 1013.4
20260505024625 10 188 11.3 14.5 0.00 0.00 0.00 93 1013.5
20260505024122 10 227 11.3 14.5 0.00 0.00 0.00 94 1013.5
20260505023622 10 221 11.3 19.3 0.00 0.00 0.00 94 1013.5
20260505023121 10 211 11.3 19.3 0.00 0.00 0.00 94 1013.5
20260505022621 10 199 12.9 19.3 0.00 0.00 0.00 95 1013.4
20260505022125 10 207 14.5 22.5 0.00 0.00 0.00 95 1013.4
20260505022120 10 210 16.1 22.5 0.00 0.00 0.00 95 1013.4
20260505021125 10 188 12.9 19.3 0.00 0.00 0.00 96 1013.5
20260505021121 10 205 12.9 19.3 0.00 0.00 0.00 96 1013.5
20260505020121 10 198 14.5 19.3 0.00 0.00 0.00 96 1013.5
20260505015621 10 193 16.1 27.4 0.00 0.00 0.00 96 1013.5
20260505015120 10 192 17.7 27.4 0.00 0.00 0.00 96 1013.4
20260505014621 10 194 19.3 29.0 0.00 0.00 0.00 96 1013.4
20260505014120 10 211 19.3 29.0 0.00 0.00 0.00 95 1013.5
20260505013620 10 195 19.3 25.7 0.00 0.00 0.00 95 1013.5
20260505013121 10 202 19.3 25.7 0.00 0.00 0.00 95 1013.6
20260505012624 10 202 16.1 24.1 0.00 0.00 0.00 95 1013.7
20260505012620 10 190 17.7 22.5 0.00 0.00 0.00 95 1013.6
20260505011728 10 182 22.5 30.6 0.00 0.00 0.00 94 1013.8
20260505011621 10 200 17.7 24.1 0.00 0.00 0.00 95 1013.7
20260505011124 10 186 17.7 30.6 0.00 0.00 0.00 94 1013.7
20260505011120 10 206 20.9 30.6 0.00 0.00 0.00 94 1013.8
20260505005619 10 215 24.1 30.6 0.00 0.00 0.00 95 1013.7
20260505005119 10 211 25.7 33.8 0.00 0.00 0.00 95 1013.8
20260505004619 10 207 25.7 33.8 0.00 0.00 0.00 95 1013.8
20260505004118 10 202 22.5 33.8 0.00 0.00 0.00 95 1013.8
20260505003619 10 202 20.9 33.8 0.00 0.00 0.00 95 1013.8
20260505003118 10 184 20.9 33.8 0.00 0.00 0.00 94 1013.8
20260505002623 10 200 20.9 32.2 0.00 0.00 0.00 94 1013.8
20260505002619 11 188 20.9 32.2 0.00 0.00 0.00 94 1013.8
20260505001618 11 173 22.5 32.2 0.00 0.00 0.00 94 1013.8
20260505001118 11 204 22.5 32.2 0.00 0.00 0.00 94 1013.8
20260505000618 11 197 22.5 29.0 0.00 0.00 0.00 93 1013.8
20260505000118 11 196 20.9 29.0 0.00 0.00 0.00 94 1013.8
20260504235619 11 180 20.9 29.0 0.00 0.00 0.00 94 1013.7
20260504235119 11 213 20.9 35.4 0.00 0.00 0.00 95 1013.7
20260504234618 11 203 22.5 35.4 0.00 0.00 0.00 94 1013.7
20260504234116 11 198 25.7 35.4 0.00 0.00 0.00 94 1013.7
20260504233616 11 201 25.7 35.4 0.00 0.00 0.00 94 1013.6
20260504233116 11 187 25.7 35.4 0.00 0.00 0.00 94 1013.6
20260504232616 11 196 24.1 35.4 0.00 0.00 0.00 94 1013.7
20260504232116 11 209 24.1 35.4 0.00 0.00 0.00 95 1013.7
20260504231616 10 188 22.5 35.4 0.00 0.00 0.00 95 1013.7
20260504231116 10 192 22.5 33.8 0.00 0.00 0.00 95 1013.8
20260504230616 10 195 22.5 33.8 0.00 0.00 0.00 94 1013.9
20260504230116 10 207 24.1 35.4 0.00 0.00 0.00 94 1013.9
20260504225616 10 196 29.0 41.8 0.00 0.00 0.00 94 1014.0
20260504225115 11 190 29.0 43.5 0.00 0.00 0.00 93 1013.9
20260504224616 11 184 27.4 45.1 0.00 0.00 0.00 92 1013.9
20260504224116 11 228 27.4 45.1 0.00 0.00 0.00 90 1014.0
20260504223616 11 194 29.0 43.5 0.00 0.00 0.00 90 1014.1
20260504223117 11 178 29.0 40.2 0.00 0.00 0.00 89 1014.1
20260504222614 11 200 29.0 46.7 0.00 0.00 0.00 91 1014.1
20260504222114 11 180 30.6 46.7 0.00 0.00 0.00 91 1014.1
20260504221616 11 198 27.4 46.7 0.00 0.00 0.00 89 1014.3
20260504221612 11 182 29.0 46.7 0.00 0.00 0.00 90 1014.0
20260504220611 11 198 27.4 46.7 0.00 0.00 0.00 91 1014.4
20260504220111 11 192 30.6 49.9 0.00 0.00 0.00 91 1014.5
20260504215612 11 192 33.8 59.5 0.00 0.00 0.00 90 1014.5
20260504215111 11 201 33.8 59.5 0.00 0.00 0.00 90 1014.4
20260504214612 11 161 33.8 49.9 0.00 0.00 0.00 90 1014.5
20260504214112 11 188 33.8 53.1 0.00 0.00 0.00 88 1014.5
20260504213615 12 165 33.8 49.9 0.00 0.00 0.00 87 1014.6
20260504213611 11 171 32.2 53.1 0.00 0.00 0.00 87 1014.5
20260504212611 11 177 33.8 51.5 0.00 0.00 0.00 88 1014.5
20260504212218 11 180 35.4 49.9 0.00 0.00 0.00 84 1014.5
20260504212111 11 171 33.8 51.5 0.00 0.00 0.00 87 1014.5
20260504211615 11 189 35.4 53.1 0.00 0.00 0.00 83 1014.6
20260504211611 11 182 35.4 53.1 0.00 0.00 0.00 85 1014.4
20260504210114 11 175 37.0 54.7 0.00 0.00 0.00 83 1014.5
20260504210108 11 172 35.4 49.9 0.00 0.00 0.00 83 1014.5
20260504205108 11 175 35.4 56.3 0.00 0.00 0.00 82 1014.5
20260504204608 11 178 33.8 56.3 0.00 0.00 0.00 82 1014.5
20260504204108 12 161 33.8 51.5 0.00 0.00 0.00 82 1014.4
20260504203716 11 198 33.8 51.5 0.00 0.00 0.00 82 1014.5
20260504203613 11 188 33.8 48.3 0.00 0.00 0.00 83 1014.4
20260504203608 11 182 35.4 51.5 0.00 0.00 0.00 82 1014.6
20260504202106 11 173 35.4 51.5 0.00 0.00 0.00 81 1014.4
20260504201606 12 177 33.8 49.9 0.00 0.00 0.00 79 1014.4
20260504201106 12 183 30.6 49.9 0.00 0.00 0.00 79 1014.4
20260504200612 12 161 27.4 45.1 0.00 0.00 0.00 78 1014.4
20260504200606 12 176 30.6 45.1 0.00 0.00 0.00 77 1014.5
20260504195605 12 184 25.7 38.6 0.00 0.00 0.00 79 1014.6
20260504195106 12 162 25.7 40.2 0.00 0.00 0.00 77 1014.6
20260504194603 12 190 24.1 40.2 0.00 0.00 0.00 76 1014.6
20260504194103 12 192 25.7 37.0 0.00 0.00 0.00 78 1014.6
20260504193602 12 181 25.7 38.6 0.00 0.00 0.00 80 1014.8
20260504193101 12 175 24.1 38.6 0.00 0.00 0.00 80 1014.8
20260504192602 11 203 24.1 37.0 0.00 0.00 0.00 79 1014.6
20260504192101 12 149 24.1 37.0 0.00 0.00 0.00 80 1014.8
20260504191602 12 165 22.5 37.0 0.00 0.00 0.00 81 1014.9
20260504191102 12 194 19.3 37.0 0.00 0.00 0.00 79 1014.8
20260504190601 12 188 16.1 30.6 0.00 0.00 0.00 82 1015.0
20260504185601 12 207 16.1 25.7 0.00 0.00 0.00 81 1014.9
20260504185102 12 176 14.5 25.7 0.00 0.00 0.00 84 1014.9
20260504184601 12 183 16.1 25.7 0.00 0.00 0.00 83 1014.9
20260504184102 12 191 17.7 25.7 0.00 0.00 0.00 84 1014.9
20260504183602 12 176 16.1 25.7 0.00 0.00 0.00 83 1014.9
20260504183101 12 188 16.1 25.7 0.00 0.00 0.00 82 1014.8
20260504182601 12 190 14.5 25.7 0.00 0.00 0.00 81 1014.9
20260504182102 12 169 12.9 24.1 0.00 0.00 0.00 83 1014.9
20260504181606 12 203 11.3 19.3 0.00 0.00 0.00 85 1014.9
20260504181602 12 195 11.3 22.5 0.00 0.00 0.00 83 1015.0
20260504180601 11 183 11.3 19.3 0.00 0.00 0.00 85 1015.0
20260504175602 11 207 14.5 20.9 0.00 0.00 0.00 86 1014.9
20260504175102 11 190 14.5 22.5 0.00 0.00 0.00 87 1014.9
20260504174602 11 190 14.5 24.1 0.00 0.00 0.00 87 1014.9
20260504174105 11 180 16.1 25.7 0.00 0.00 0.00 88 1014.8
20260504174101 11 175 14.5 24.1 0.00 0.00 0.00 86 1014.8
20260504173106 11 175 14.5 22.5 0.00 0.00 0.00 86 1014.8
20260504173101 11 202 16.1 25.7 0.00 0.00 0.00 87 1014.8
20260504172105 12 186 9.7 20.9 0.00 0.00 0.00 85 1014.8
20260504172101 11 173 12.9 20.9 0.00 0.00 0.00 85 1014.5
20260504171708 12 205 6.4 19.3 0.00 0.00 0.00 85 1014.6
20260504170601 11 180 8.0 17.7 0.00 0.00 0.00 84 1014.5
20260504151057 10 136 0.0 0.0 0.00 0.00 0.00 89 1014.1
20260504150558 10 136 0.0 0.0 0.00 0.00 0.00 89 1014.0
20260504141058 9 136 1.6 4.8 0.00 0.00 0.00 89 1013.9
20260504141054 9 128 1.6 4.8 0.00 0.00 0.00 90 1013.7
20260504130552 9 206 0.0 3.2 0.00 0.00 0.00 89 1013.4
20260504110542 10 270 0.0 3.2 0.00 0.00 0.00 88 1013.4
20260504110538 10 270 0.0 3.2 0.00 0.00 0.00 88 1013.4
20260504100534 10 196 1.6 4.8 0.00 0.00 0.00 84 1013.0